Location: Il Ritiro
(43.4167°N, 13.1333°E)
Time: 17:08:06
(UTC+00:00)

Cosmos 2360 Rocket - Pass Details

Date: 05 July 2020
Orbit: 832 x 846 km, 71.0° (Epoch: 11 August)

Event Time Altitude Azimuth Distance (km) Brightness Sun altitude
Rises 20:31:23 0° 221° (SW) 3,375 5.2 -14.3°
Reaches altitude 10° 20:33:55 10° 227° (SW) 2,447 4.6 -14.6°
Maximum altitude 20:39:19 47° 301° (WNW) 1,104 3.3 -15.2°
Drops below altitude 10° 20:44:46 10° 15° (NNE) 2,471 5.2 -15.7°
Sets 20:47:20 0° 21° (NNE) 3,411 5.9 -16.0°
